DELTA 1 DEB, 12647

Orbit data source: Space-Track

DELTA 1 DEB, 12647 is space debris in LEO originally from a launch on Thu, 29 Jul 1976 UTC launched from the Air Force Western Test Range (AFWTR). Debris objects in space refer to the collection of defunct objects orbiting the Earth. Examples of debris include non-operational satellites, rocket bodies, and fragments generated from explosions, collisions, or faulty payload assembly.

Loading next visibility...
Identifier
12647, 1976-077EA
Orbit
LEO
Country
Flag of USUS
Related business
Manufacturer
Unknown
Mission
Spacecraft
Bus & Motor
Unknown
Mass
Unknown
Launch date (UTC)
1976-07-29 (50 years ago)
Launch vehicle
Unknown
Launch site
Air Force Western Test Range (AFWTR)
Object type
Payload
Rocket body
Debris
Shape & HBR
Unknown shape, 0.1 m
Radar Cross Section
Medium (>0.1 m² and <1 m²)

Expand to show TLE details & history
Last TLE update: 1 day ago

TLE from 1 day ago
0 DELTA 1 DEB
1 12647U 76077EA  26170.72193454  .00001446  00000-0  17714-1 0  9994
2 12647 100.6744 245.7774 0374883 218.7573 297.6306 11.86819099 88221
Epoch: 2026-06-19T17:19Z
TLE epoch observation values (Epoch: 2026-06-19T17:19:35.144Z)
Latitude
27.02057°
Longitude
-96.57658°
Altitude
1,611.418 km
Speed
7.124 km/s
True Right ascension
04h 45m 04s
True Declination
26° 53' 47"
Sunlit
Object was in daylight at epoch
Visualization orbit readout
Latitude
Unknown
Longitude
Unknown
Altitude
Unknown
Speed
Unknown
Apparent Right ascension
Unknown
Apparent Declination
Unknown
Sunlit
N/A
Visualization observer readout
Local Sidereal Time
06:14:51
Azimuth
Unknown
Elevation
Unknown
Doppler factor
Unknown
Orbital elements
Apogee altitude
2,042.246 km
Perigee altitude
1,433.727 km
Semi-major axis
8,116.124 km
Eccentricity
0.03749
Inclination
100.6744°
RAAN
245.7774°
Arg. of periapsis
218.7573°
True anomaly
293.74319°
Mean anomaly
297.6306°
Eccentric anomaly
295.69508°
Mean motion
2.96838 °/min
Orbital period
121.28 mins
BSTAR
0.017714
Loading maneuver chart data...
Computing Atmospheric mass density...
Loading historical data...
Loading historical data...
Loading historical data...
Loading historical data...
Loading historical data...
Loading historical data...
Loading historical data...

Documentation

Showing up to 5 results
|